GW0554 Weather Reports


Display with metric or nautical units.
time (UTC)temp
F
wind
direction
speed
MPH
gust
MPH
rain 1hr
in
rain 24hr
in
rain mn
in
humidity
%
barometer
mb
20260510153118 69 335 1.0 1.0 0.00 0.00 0.00 99 1018.6
20260510152615 69 326 2.0 2.0 0.00 0.00 0.00 99 1018.6
20260510152111 68 339 3.0 3.0 0.00 0.00 0.00 99 1018.5
20260510151607 69 334 1.0 1.0 0.00 0.00 0.00 99 1018.6
20260510151105 69 340 1.0 2.0 0.00 0.00 0.00 99 1018.6
20260510150600 69 343 2.0 3.0 0.00 0.00 0.00 99 1018.9
20260510150056 69 4 0.0 1.0 0.00 0.00 0.00 99 1018.6
20260510145553 68 253 1.0 2.0 0.00 0.00 0.00 99 1018.7
20260510145050 68 334 2.0 3.0 0.00 0.00 0.00 99 1018.8
20260510144546 69 319 0.0 1.0 0.00 0.00 0.00 99 1018.9
20260510144042 68 2 1.0 1.0 0.00 0.00 0.00 99 1018.8
20260510143537 69 331 1.0 1.0 0.00 0.00 0.00 99 1018.7
20260510143034 68 251 1.0 1.0 0.00 0.00 0.00 99 1019.0
20260510142531 67 351 1.0 1.0 0.00 0.00 0.00 99 1019.2
20260510142028 68 351 1.0 1.0 0.00 0.00 0.00 99 1019.0
20260510141524 68 270 0.0 1.0 0.00 0.00 0.00 99 1019.0
20260510141022 68 334 2.0 2.0 0.00 0.00 0.00 99 1019.0
20260510140518 67 353 1.0 1.0 0.00 0.00 0.00 99 1019.0
20260510140018 67 347 0.0 0.0 0.00 0.00 0.00 99 1018.7
20260510135513 67 339 0.0 0.0 0.00 0.00 0.00 99 1018.9
20260510135010 67 340 1.0 1.0 0.00 0.00 0.00 99 1018.8
20260510134507 67 0 2.0 2.0 0.00 0.00 0.00 99 1018.7
20260510134004 67 322 3.0 3.0 0.00 0.00 0.00 99 1018.7
20260510133500 67 269 0.0 0.0 0.00 0.00 0.00 99 1018.6
20260510132955 67 269 0.0 0.0 0.00 0.00 0.00 99 1018.5
20260510132453 67 268 0.0 0.0 0.00 0.00 0.00 99 1018.5
20260510131950 67 323 2.0 2.0 0.00 0.00 0.00 99 1018.5
20260510131448 66 316 1.0 2.0 0.00 0.00 0.00 99 1018.3
20260510130944 67 335 2.0 3.0 0.00 0.00 0.00 99 1018.1
20260510130441 66 336 0.0 0.0 0.00 0.00 0.00 99 1018.1
20260510125938 66 336 0.0 1.0 0.00 0.00 0.00 99 1018.2
20260510125434 66 338 1.0 1.0 0.00 0.00 0.00 99 1018.2
20260510124930 66 329 0.0 0.0 0.00 0.00 0.00 99 1018.3
20260510124427 65 331 2.0 2.0 0.00 0.00 0.00 99 1018.1
20260510123924 65 308 0.0 0.0 0.00 0.00 0.00 99 1017.9
20260510123414 65 322 0.0 0.0 0.00 0.00 0.00 99 1017.7
20260510122911 65 319 0.0 0.0 0.00 0.00 0.00 99 1017.9
20260510122411 65 298 0.0 0.0 0.00 0.00 0.00 99 1017.8
20260510121907 65 290 0.0 0.0 0.00 0.00 0.00 99 1017.6
20260510121405 65 307 0.0 0.0 0.00 0.00 0.00 99 1017.6
20260510120902 65 306 0.0 0.0 0.00 0.00 0.00 99 1017.7
20260510120359 65 289 0.0 0.0 0.00 0.00 0.00 99 1017.4
20260510115855 64 289 0.0 0.0 0.00 0.00 0.00 99 1017.3
20260510115352 64 289 1.0 1.0 0.00 0.00 0.00 99 1017.4
20260510114848 64 292 0.0 0.0 0.00 0.00 0.00 99 1017.2
20260510114346 64 292 0.0 0.0 0.00 0.00 0.00 99 1017.0
20260510113845 64 292 0.0 0.0 0.00 0.00 0.00 99 1016.8
20260510113342 64 292 0.0 0.0 0.00 0.00 0.00 99 1016.5
20260510112839 64 292 1.0 1.0 0.00 0.00 0.00 99 1016.7
20260510112336 64 309 0.0 0.0 0.00 0.00 0.00 99 1016.6
20260510111832 64 309 0.0 0.0 0.00 0.00 0.00 99 1016.4
20260510111329 63 317 0.0 0.0 0.00 0.00 0.00 99 1016.2
20260510110828 63 317 0.0 0.0 0.00 0.00 0.00 99 1016.0
20260510110326 63 317 0.0 0.0 0.00 0.00 0.00 99 1016.0
20260510105822 63 317 0.0 0.0 0.00 0.00 0.00 99 1015.8
20260510105321 63 317 0.0 0.0 0.00 0.00 0.00 99 1015.8
20260510104818 63 317 0.0 0.0 0.00 0.00 0.00 99 1015.9
20260510104315 63 317 0.0 0.0 0.00 0.00 0.00 99 1015.8
20260510103812 63 317 0.0 0.0 0.00 0.00 0.00 99 1015.8
20260510103309 64 317 0.0 0.0 0.00 0.00 0.00 99 1015.7
20260510102804 64 317 0.0 0.0 0.00 0.00 0.00 99 1015.6
20260510102300 64 317 0.0 0.0 0.00 0.00 0.00 99 1015.6
20260510101757 64 317 0.0 0.0 0.00 0.00 0.00 99 1015.4
20260510101255 64 317 0.0 0.0 0.00 0.00 0.00 99 1015.6
20260510100751 64 317 0.0 0.0 0.00 0.00 0.00 99 1015.6
20260510100249 64 317 0.0 0.0 0.00 0.00 0.00 99 1015.4
20260510095744 64 317 0.0 0.0 0.00 0.00 0.00 99 1015.2
20260510095240 64 317 0.0 0.0 0.00 0.00 0.00 99 1015.3
20260510094738 64 317 0.0 0.0 0.00 0.00 0.00 99 1015.2
20260510094234 64 317 0.0 0.0 0.00 0.00 0.00 99 1015.5
20260510093730 64 317 0.0 0.0 0.00 0.00 0.00 99 1015.4
20260510093228 64 317 0.0 0.0 0.00 0.00 0.00 99 1015.5
20260510092724 65 317 0.0 0.0 0.00 0.00 0.00 99 1015.2
20260510092220 65 317 0.0 0.0 0.00 0.00 0.00 99 1015.3
20260510091716 65 317 0.0 0.0 0.00 0.00 0.00 99 1015.3
20260510091212 65 317 0.0 0.0 0.00 0.00 0.00 99 1015.5
20260510090709 65 317 0.0 0.0 0.00 0.00 0.00 99 1015.4
20260510090206 65 320 1.0 1.0 0.00 0.00 0.00 99 1015.4
20260510085701 65 318 1.0 1.0 0.00 0.00 0.00 99 1015.3
20260510085156 65 318 0.0 0.0 0.00 0.00 0.00 99 1015.0
20260510084653 65 318 0.0 0.0 0.00 0.00 0.00 99 1015.0
20260510084149 65 319 1.0 1.0 0.00 0.00 0.00 99 1015.0
20260510083646 65 318 0.0 1.0 0.00 0.00 0.00 99 1015.1
20260510083143 65 317 0.0 1.0 0.00 0.00 0.00 99 1014.9
20260510082639 65 317 1.0 1.0 0.00 0.00 0.00 99 1015.1
20260510082135 65 317 1.0 1.0 0.00 0.00 0.00 99 1014.9
20260510081629 65 317 0.0 1.0 0.00 0.00 0.00 99 1015.1
20260510081126 65 317 1.0 1.0 0.00 0.00 0.00 99 1015.1
20260510080625 65 316 0.0 0.0 0.00 0.00 0.00 99 1014.8
20260510080122 65 316 0.0 0.0 0.00 0.00 0.00 99 1014.6
20260510075619 65 316 1.0 1.0 0.00 0.00 0.00 99 1014.8
20260510075117 65 311 0.0 0.0 0.00 0.00 0.00 99 1014.8
20260510074614 65 310 0.0 1.0 0.00 0.00 0.00 99 1014.8
20260510074109 65 307 0.0 0.0 0.00 0.00 0.00 99 1014.7
20260510073605 65 297 1.0 1.0 0.00 0.00 0.00 99 1014.7
20260510073103 66 297 0.0 0.0 0.00 0.00 0.00 99 1014.5
20260510072559 66 296 0.0 0.0 0.00 0.00 0.00 99 1015.0
20260510072055 66 296 0.0 0.0 0.00 0.00 0.00 99 1014.7
20260510071551 66 289 0.0 0.0 0.00 0.00 0.00 99 1015.0
20260510071049 65 289 0.0 0.0 0.00 0.00 0.00 99 1015.1
20260510070546 65 289 0.0 0.0 0.00 0.00 0.00 99 1014.9
20260510070043 66 284 0.0 0.0 0.00 0.00 0.00 99 1014.9
20260510065539 66 280 0.0 0.0 0.00 0.00 0.00 99 1014.9
20260510065035 66 280 0.0 0.0 0.00 0.00 0.00 99 1014.8
20260510064532 66 255 0.0 0.0 0.00 0.00 0.00 99 1014.6
20260510064028 66 251 0.0 0.0 0.00 0.00 0.00 99 1014.7
20260510063525 66 258 2.0 2.0 0.00 0.00 0.00 99 1014.6
20260510063023 66 273 0.0 0.0 0.00 0.00 0.00 99 1014.7
20260510062518 66 273 0.0 0.0 0.00 0.00 0.00 99 1014.9
20260510062014 66 273 0.0 0.0 0.00 0.00 0.00 99 1015.1
20260510061511 66 273 0.0 0.0 0.00 0.00 0.00 99 1015.1
20260510061007 66 273 0.0 0.0 0.00 0.00 0.00 99 1014.9
20260510060504 66 273 0.0 0.0 0.00 0.00 0.00 99 1015.2
20260510060000 66 273 0.0 0.0 0.00 0.00 0.00 99 1014.8
20260510055456 66 273 0.0 0.0 0.00 0.00 0.00 99 1015.2
20260510054954 66 273 0.0 0.0 0.00 0.00 0.00 99 1015.1
20260510054449 66 273 0.0 0.0 0.00 0.00 0.00 99 1015.2
20260510053945 66 273 0.0 0.0 0.00 0.00 0.00 99 1015.1
20260510053440 66 273 0.0 0.0 0.00 0.00 0.00 99 1014.9
20260510052936 66 273 0.0 0.0 0.00 0.00 0.00 99 1015.0
20260510052432 66 273 0.0 0.0 0.00 0.00 0.00 99 1015.0
20260510051929 66 273 0.0 0.0 0.00 0.00 0.00 99 1014.9
20260510051425 66 273 0.0 1.0 0.00 0.00 0.00 99 1014.6
20260510050922 66 273 0.0 0.0 0.00 0.00 0.00 99 1014.8
20260510050418 66 273 0.0 0.0 0.00 0.00 0.00 99 1014.9
20260510045916 66 284 1.0 1.0 0.00 2.50 2.50 99 1014.4
20260510045413 66 295 0.0 0.0 0.00 2.50 2.50 99 1014.5
20260510044909 66 299 0.0 0.0 0.00 2.50 2.50 99 1014.5
20260510044407 66 329 0.0 0.0 0.00 2.50 2.50 99 1014.4
20260510043903 66 329 0.0 0.0 0.00 2.50 2.50 99 1014.8
20260510043359 66 329 0.0 0.0 0.00 2.50 2.50 99 1014.7
20260510042857 66 329 0.0 0.0 0.00 2.50 2.50 99 1014.7
20260510042353 66 329 0.0 0.0 0.00 2.50 2.50 99 1014.9
20260510041849 66 329 0.0 0.0 0.00 2.50 2.50 99 1015.1
20260510041346 66 329 0.0 0.0 0.00 2.50 2.50 99 1014.9
20260510040844 66 329 0.0 0.0 0.00 2.50 2.50 99 1015.1
20260510040340 66 329 0.0 0.0 0.00 2.50 2.50 99 1015.4
20260510035836 66 329 0.0 0.0 0.00 2.50 2.50 99 1015.6
20260510035332 66 329 0.0 0.0 0.00 2.50 2.50 99 1015.6
20260510034828 66 329 0.0 0.0 0.00 2.50 2.50 99 1015.7
20260510034326 66 329 0.0 0.0 0.00 2.50 2.50 99 1015.5
20260510033822 66 329 0.0 0.0 0.00 2.50 2.50 99 1015.5
20260510033319 66 329 0.0 0.0 0.00 2.50 2.50 99 1015.7
20260510032816 66 329 0.0 0.0 0.00 2.50 2.50 99 1015.5
20260510032312 66 329 0.0 0.0 0.00 2.50 2.50 99 1015.5
20260510031808 66 329 0.0 0.0 0.00 2.50 2.50 99 1015.2
20260510031303 66 329 0.0 0.0 0.00 2.50 2.50 99 1015.2
20260510030757 66 330 2.0 2.0 0.00 2.50 2.50 99 1015.3
20260510030254 66 330 0.0 0.0 0.00 2.50 2.50 99 1015.5
20260510025752 66 330 0.0 0.0 0.00 2.50 2.50 99 1015.2
20260510025249 66 330 0.0 0.0 0.00 2.50 2.50 99 1015.4
20260510024745 66 330 0.0 0.0 0.00 2.50 2.50 99 1015.7
20260510024242 66 317 0.0 0.0 0.05 2.50 2.50 99 1015.5
20260510023738 66 317 0.0 0.0 0.05 2.50 2.50 99 1015.9
20260510023230 66 324 0.0 0.0 0.00 2.49 2.49 99 1015.6
20260510022726 66 323 1.0 1.0 0.00 2.49 2.49 99 1015.2
20260510022225 66 342 2.0 2.0 0.00 2.49 2.49 99 1015.0
20260510021721 66 341 0.0 1.0 0.00 2.49 2.49 99 1015.5
20260510021219 66 325 0.0 1.0 0.00 2.49 2.49 99 1015.1
20260510020714 66 298 0.0 0.0 0.00 2.49 2.49 99 1014.7
20260510020209 66 298 0.0 1.0 0.00 2.49 2.49 99 1014.4
20260510015705 66 294 1.0 1.0 0.00 2.49 2.49 99 1015.0
20260510015201 66 287 0.0 1.0 0.00 2.49 2.49 99 1014.5
20260510014701 66 274 0.0 0.0 0.00 2.49 2.49 99 1014.2
20260510014159 66 204 0.0 0.0 0.00 2.49 2.49 99 1013.7
20260510013654 66 204 0.0 0.0 0.00 2.49 2.49 99 1013.9
20260510013150 66 204 0.0 0.0 0.00 2.49 2.49 99 1013.6
20260510012650 66 223 2.0 2.0 0.00 2.49 2.49 99 1014.0
20260510012146 66 269 0.0 0.0 0.00 2.49 2.49 99 1014.1
20260510011641 66 270 0.0 0.0 0.00 2.49 2.49 99 1014.0
20260510011137 66 270 0.0 0.0 0.00 2.49 2.49 99 1013.9
20260510010633 66 266 0.0 0.0 0.00 2.49 2.49 99 1014.2
20260510010130 66 247 0.0 0.0 0.00 2.49 2.49 99 1014.2
20260510005625 66 242 0.0 0.0 0.00 2.49 2.49 99 1014.1
20260510005123 66 242 0.0 0.0 0.07 2.49 2.49 99 1014.2
20260510004621 66 242 0.0 0.0 0.07 2.49 2.49 99 1014.1
20260510004119 66 242 0.0 0.0 0.00 2.48 2.48 99 1014.0
20260510003616 66 242 0.0 0.0 0.00 2.48 2.48 99 1014.4
20260510003112 66 242 0.0 0.0 0.00 2.48 2.48 99 1014.3
20260510002606 67 242 0.0 1.0 0.00 2.48 2.48 99 1014.5
20260510002103 67 240 0.0 0.0 0.00 2.48 2.48 99 1014.4
20260510001601 67 239 0.0 0.0 0.05 2.48 2.48 99 1014.2
20260510001100 67 278 0.0 0.0 0.05 2.48 2.48 99 1014.4
20260510000600 67 280 0.0 1.0 0.00 2.47 2.47 99 1014.2
20260510000056 67 257 1.0 1.0 0.07 2.47 2.47 99 1014.3
20260509235553 67 252 0.0 0.0 0.07 2.47 2.47 99 1013.8
20260509235050 67 283 1.0 1.0 0.05 2.46 2.46 99 1014.2
20260509234546 67 310 0.0 0.0 0.05 2.46 2.46 99 1014.2
20260509234044 67 265 0.0 0.0 0.00 2.45 2.45 99 1014.0
20260509233541 67 265 0.0 0.0 0.00 2.45 2.45 99 1013.1
20260509233038 67 265 0.0 0.0 0.07 2.45 2.45 99 1013.3
20260509232535 67 281 1.0 1.0 0.07 2.45 2.45 99 1013.5
20260509232032 67 306 1.0 1.0 0.05 2.44 2.44 99 1013.5
20260509231528 67 267 0.0 0.0 0.05 2.44 2.44 99 1013.8
20260509231026 67 267 0.0 1.0 0.00 2.43 2.43 99 1014.1
20260509230522 67 274 0.0 0.0 0.00 2.43 2.43 99 1013.7
20260509230020 67 233 1.0 1.0 0.00 2.43 2.43 99 1014.3
20260509225515 67 268 1.0 1.0 0.00 2.43 2.43 99 1014.6
20260509225011 67 194 0.0 1.0 0.00 2.43 2.43 99 1014.2
20260509224507 67 251 1.0 2.0 0.00 2.43 2.43 99 1014.3
20260509224004 67 286 1.0 1.0 0.00 2.43 2.43 99 1014.1
20260509223500 67 277 0.0 0.0 0.00 2.43 2.43 99 1014.1
20260509222958 67 313 2.0 2.0 0.00 2.43 2.43 99 1013.1
20260509222453 67 254 3.0 3.0 0.00 2.43 2.43 99 1012.9
20260509221949 67 266 0.0 1.0 0.00 2.43 2.43 99 1013.2
20260509221446 67 292 0.0 1.0 0.00 2.43 2.43 99 1013.5
20260509220941 67 257 0.0 0.0 0.00 2.43 2.43 99 1013.3
20260509220438 67 257 0.0 0.0 0.00 2.43 2.43 99 1013.1
20260509215934 67 257 0.0 0.0 0.00 2.43 2.43 99 1013.4
20260509215429 67 257 1.0 1.0 0.00 2.43 2.43 99 1013.2
20260509214927 67 247 0.0 0.0 0.00 2.43 2.43 99 1013.1
20260509214424 67 246 0.0 0.0 0.00 2.43 2.43 99 1012.5
20260509213921 67 305 0.0 0.0 0.00 2.43 2.43 99 1012.8
20260509213416 67 305 0.0 0.0 0.00 2.43 2.43 99 1013.1
20260509212914 67 321 0.0 0.0 0.00 2.43 2.43 99 1012.8
20260509212412 67 309 1.0 2.0 0.00 2.43 2.43 99 1013.2
20260509211908 67 247 0.0 0.0 0.07 2.43 2.43 99 1012.7
20260509211403 67 247 0.0 0.0 0.07 2.43 2.43 99 1012.1
20260509210900 67 247 0.0 0.0 0.00 2.42 2.42 99 1012.1
20260509210357 66 247 0.0 0.0 0.00 2.42 2.42 99 1012.5
20260509205852 66 243 0.0 0.0 0.00 2.42 2.42 99 1012.8
20260509205346 66 243 0.0 1.0 0.00 2.42 2.42 99 1012.9
20260509204844 66 255 0.0 0.0 0.00 2.42 2.42 99 1013.3
20260509204340 66 317 1.0 2.0 0.00 2.42 2.42 99 1014.1
20260509203836 67 310 1.0 1.0 0.00 2.42 2.42 99 1013.9
20260509203333 66 255 0.0 0.0 0.00 2.42 2.42 99 1013.2
20260509202829 66 290 0.0 0.0 0.00 2.42 2.42 99 1013.4
20260509202326 66 286 1.0 1.0 0.00 2.42 2.42 99 1013.6
20260509201825 66 310 1.0 1.0 0.00 2.42 2.42 99 1013.5
20260509201322 66 327 1.0 1.0 0.00 2.42 2.42 99 1013.5
20260509200818 66 324 0.0 0.0 0.00 2.42 2.42 99 1013.7
20260509200314 66 276 1.0 1.0 0.00 2.42 2.42 99 1013.6
20260509195811 66 307 0.0 0.0 0.00 2.42 2.42 99 1013.9
20260509195306 66 280 0.0 1.0 0.00 2.42 2.42 99 1013.7
20260509194805 66 290 1.0 2.0 0.00 2.42 2.42 99 1013.9
20260509194301 66 269 0.0 0.0 0.00 2.42 2.42 99 1013.8
20260509193758 65 323 0.0 1.0 0.00 2.42 2.42 99 1013.5
20260509193258 66 306 2.0 2.0 0.00 2.42 2.42 99 1013.4
20260509192755 66 308 1.0 1.0 0.00 2.42 2.42 99 1013.3
20260509192250 66 301 0.0 0.0 0.00 2.42 2.42 99 1013.3
20260509191745 66 305 0.0 0.0 0.00 2.42 2.42 99 1013.2
20260509191242 66 286 0.0 0.0 0.00 2.42 2.42 99 1013.2
20260509190738 65 283 0.0 0.0 0.00 2.42 2.42 99 1013.5
20260509190235 65 270 0.0 0.0 0.00 2.42 2.42 99 1013.3
20260509185733 65 273 1.0 1.0 0.00 2.42 2.42 99 1013.5
20260509185229 65 306 0.0 1.0 0.00 2.42 2.42 99 1013.1
20260509184727 65 158 3.0 3.0 0.00 2.42 2.42 99 1013.1
20260509184224 65 220 4.0 5.0 0.00 2.42 2.42 99 1013.6
20260509183720 65 173 2.0 3.0 0.00 2.42 2.42 99 1013.8
20260509183215 65 165 3.0 5.0 0.00 2.42 2.42 99 1013.7
20260509182711 65 156 4.0 5.0 0.00 2.42 2.42 99 1013.8
20260509182209 65 222 2.0 3.0 0.00 2.42 2.42 99 1013.9
20260509181706 65 233 2.0 2.0 0.00 2.42 2.42 99 1014.0
20260509181204 65 197 2.0 2.0 0.00 2.42 2.42 99 1014.0
20260509180700 65 164 2.0 3.0 0.00 2.42 2.42 99 1013.9
20260509180156 65 229 1.0 1.0 0.00 2.42 2.42 99 1014.1
20260509175653 65 209 2.0 2.0 0.00 2.42 2.42 99 1013.5
20260509175149 65 177 2.0 2.0 0.00 2.42 2.42 99 1013.3
20260509174645 65 255 1.0 1.0 0.00 2.42 2.42 99 1013.3
20260509174140 65 262 0.0 0.0 0.05 2.42 2.42 99 1013.5
20260509173636 64 246 0.0 1.0 0.12 2.42 2.42 99 1013.3
20260509173132 64 175 2.0 3.0 0.14 2.41 2.41 99 1012.2
20260509172629 64 172 1.0 2.0 0.12 2.40 2.40 99 1012.3
20260509172125 64 161 3.0 3.0 0.12 2.39 2.39 99 1012.9
20260509171621 64 165 3.0 5.0 0.19 2.38 2.38 99 1014.1
20260509171117 64 165 3.0 3.0 0.17 2.37 2.37 99 1014.6
20260509170614 64 204 1.0 2.0 0.17 2.35 2.35 99 1014.8
20260509170110 64 203 0.0 0.0 0.19 2.34 2.34 99 1014.7
20260509165608 64 170 1.0 2.0 0.12 2.32 2.32 99 1014.9
20260509165104 64 161 1.0 2.0 0.12 2.31 2.31 99 1014.6
20260509164600 64 174 1.0 1.0 0.19 2.30 2.30 99 1014.6
20260509164056 64 167 2.0 2.0 0.19 2.29 2.29 99 1014.6
20260509163554 64 181 1.0 1.0 0.12 2.27 2.27 99 1014.5
20260509163049 64 168 0.0 1.0 0.12 2.26 2.26 99 1014.8
20260509162546 64 183 3.0 3.0 0.07 2.25 2.25 99 1014.5
20260509162042 64 193 3.0 5.0 0.05 2.24 2.24 99 1014.0
20260509161539 64 167 3.0 5.0 0.17 2.24 2.24 99 1014.0
20260509161033 64 171 3.0 3.0 0.19 2.23 2.23 99 1014.3
20260509160530 64 186 1.0 1.0 0.24 2.21 2.21 99 1014.6
20260509160025 64 166 3.0 5.0 0.28 2.20 2.20 99 1014.8
20260509155521 64 182 3.0 3.0 0.19 2.17 2.17 99 1015.0
20260509155018 64 166 2.0 3.0 0.19 2.15 2.15 99 1015.1
20260509154514 64 190 0.0 1.0 0.19 2.14 2.14 99 1015.5
20260509154012 63 196 0.0 1.0 0.19 2.12 2.12 99 1015.3
20260509153509 63 180 3.0 3.0 0.17 2.11 2.11 99 1015.2